Time,TemperatureF,DewpointF,PressureIn,WindDirection,WindDirectionDegrees,WindSpeedMPH,WindSpeedGustMPH,Humidity,HourlyPrecipIn,Conditions,Clouds,dailyrainin,SoftwareType,DateUTC
2013-03-31 00:00:00,48.3,19.8,30.03,NW,315,2.0,2.7,32,0.00,,,0.00,VWS V14.01,2013-03-31 04:00:00,
2013-03-31 00:02:00,48.3,19.8,30.03,NW,315,2.7,3.1,32,0.00,,,0.00,VWS V14.01,2013-03-31 04:02:00,
2013-03-31 00:07:00,48.3,19.8,30.03,NW,315,1.6,1.6,32,0.00,,,0.00,VWS V14.01,2013-03-31 04:07:00,
2013-03-31 00:12:00,48.3,19.8,30.03,NW,315,1.1,1.3,32,0.00,,,0.00,VWS V14.01,2013-03-31 04:12:00,
2013-03-31 00:17:00,48.3,19.8,30.03,NW,315,0.0,0.0,32,0.00,,,0.00,VWS V14.01,2013-03-31 04:17:00,
2013-03-31 00:22:00,48.3,19.8,30.03,NW,315,0.0,0.0,32,0.00,,,0.00,VWS V14.01,2013-03-31 04:22:00,
2013-03-31 00:27:00,48.3,19.8,30.03,NW,315,1.6,1.6,32,0.00,,,0.00,VWS V14.01,2013-03-31 04:27:00,
2013-03-31 00:30:00,48.3,19.8,30.06,NW,315,1.3,1.6,32,0.00,,,0.00,VWS V14.01,2013-03-31 04:30:00,
2013-03-31 00:32:00,48.3,19.8,30.06,NW,315,2.0,2.0,32,0.00,,,0.00,VWS V14.01,2013-03-31 04:32:00,
2013-03-31 00:38:00,48.3,19.8,30.06,NW,315,2.0,2.5,32,0.00,,,0.00,VWS V14.01,2013-03-31 04:38:00,
2013-03-31 00:43:00,48.3,19.8,30.06,NW,315,2.5,3.1,32,0.00,,,0.00,VWS V14.01,2013-03-31 04:43:00,
2013-03-31 00:48:00,48.3,19.8,30.06,NW,315,2.2,3.4,32,0.00,,,0.00,VWS V14.01,2013-03-31 04:48:00,
2013-03-31 00:53:00,48.3,19.8,30.06,NW,315,2.0,3.4,32,0.00,,,0.00,VWS V14.01,2013-03-31 04:53:00,
2013-03-31 00:58:00,48.3,19.8,30.06,NW,315,2.0,3.4,32,0.00,,,0.00,VWS V14.01,2013-03-31 04:58:00,
2013-03-31 01:00:00,48.3,19.8,30.06,NW,315,2.5,2.5,32,0.00,,,0.00,VWS V14.01,2013-03-31 05:00:00,
2013-03-31 01:03:00,48.3,19.8,30.06,NW,315,2.5,2.5,32,0.00,,,0.00,VWS V14.01,2013-03-31 05:03:00,
2013-03-31 01:08:00,48.3,19.8,30.06,NW,315,1.3,1.3,32,0.00,,,0.00,VWS V14.01,2013-03-31 05:08:00,
2013-03-31 01:13:00,48.3,19.8,30.06,NW,315,1.3,1.6,32,0.00,,,0.00,VWS V14.01,2013-03-31 05:13:00,
2013-03-31 01:18:00,48.3,19.8,30.06,NW,315,2.5,2.5,32,0.00,,,0.00,VWS V14.01,2013-03-31 05:18:00,
2013-03-31 01:23:00,48.3,19.8,30.06,NW,315,0.0,2.2,32,0.00,,,0.00,VWS V14.01,2013-03-31 05:23:00,
2013-03-31 01:28:00,48.3,19.8,30.06,NW,315,1.1,2.5,32,0.00,,,0.00,VWS V14.01,2013-03-31 05:28:00,
2013-03-31 01:30:00,48.3,19.8,30.06,NW,315,2.7,2.7,32,0.00,,,0.00,VWS V14.01,2013-03-31 05:30:00,
2013-03-31 01:33:00,48.3,19.8,30.06,NW,315,2.0,2.5,32,0.00,,,0.00,VWS V14.01,2013-03-31 05:33:00,
2013-03-31 01:38:00,48.3,19.8,30.06,NW,315,2.0,2.2,32,0.00,,,0.00,VWS V14.01,2013-03-31 05:38:00,
2013-03-31 01:43:00,48.3,19.8,30.06,NW,315,2.5,2.5,32,0.00,,,0.00,VWS V14.01,2013-03-31 05:43:00,
2013-03-31 01:48:00,48.3,19.8,30.06,NW,315,0.0,2.0,32,0.00,,,0.00,VWS V14.01,2013-03-31 05:48:00,
2013-03-31 01:53:00,48.3,19.8,30.06,NW,315,2.5,2.5,32,0.00,,,0.00,VWS V14.01,2013-03-31 05:53:00,
2013-03-31 01:58:00,48.3,19.8,30.06,NW,315,2.5,2.9,32,0.00,,,0.00,VWS V14.01,2013-03-31 05:58:00,
2013-03-31 02:00:00,48.3,19.8,30.06,NW,315,2.5,2.5,32,0.00,,,0.00,VWS V14.01,2013-03-31 06:00:00,
2013-03-31 02:03:00,48.3,19.8,30.06,NW,315,1.6,2.2,32,0.00,,,0.00,VWS V14.01,2013-03-31 06:03:00,
2013-03-31 02:08:00,48.3,19.8,30.06,NW,315,1.3,3.1,32,0.00,,,0.00,VWS V14.01,2013-03-31 06:08:00,
2013-03-31 02:13:00,48.3,19.8,30.06,NW,315,2.9,2.9,32,0.00,,,0.00,VWS V14.01,2013-03-31 06:13:00,
2013-03-31 02:18:00,48.3,19.8,30.06,NW,315,2.5,2.9,32,0.00,,,0.00,VWS V14.01,2013-03-31 06:18:00,
2013-03-31 02:23:00,48.3,19.8,30.06,NW,315,4.0,4.0,32,0.00,,,0.00,VWS V14.01,2013-03-31 06:23:00,
2013-03-31 02:28:00,48.3,19.8,30.03,NW,315,2.9,2.9,32,0.00,,,0.00,VWS V14.01,2013-03-31 06:28:00,
2013-03-31 02:30:00,48.3,19.8,30.03,NW,315,2.5,2.9,32,0.00,,,0.00,VWS V14.01,2013-03-31 06:30:00,
2013-03-31 02:33:00,48.3,19.8,30.03,NW,315,2.2,2.9,32,0.00,,,0.00,VWS V14.01,2013-03-31 06:33:00,
2013-03-31 02:38:00,48.3,19.8,30.03,NW,315,2.7,2.7,32,0.00,,,0.00,VWS V14.01,2013-03-31 06:38:00,
2013-03-31 02:43:00,48.3,19.8,30.06,NW,315,2.9,2.9,32,0.00,,,0.00,VWS V14.01,2013-03-31 06:43:00,
2013-03-31 02:48:00,48.3,19.8,30.06,NW,315,2.5,2.7,32,0.00,,,0.00,VWS V14.01,2013-03-31 06:48:00,
2013-03-31 02:53:00,48.3,19.8,30.06,NNW,338,2.5,2.5,32,0.00,,,0.00,VWS V14.01,2013-03-31 06:53:00,
2013-03-31 02:58:00,48.3,19.8,30.03,NNW,338,2.9,2.9,32,0.00,,,0.00,VWS V14.01,2013-03-31 06:58:00,
2013-03-31 03:00:00,48.3,19.8,30.03,NNW,338,2.9,2.9,32,0.00,,,0.00,VWS V14.01,2013-03-31 07:00:00,
2013-03-31 03:03:00,48.3,19.8,30.03,NNW,338,1.1,1.6,32,0.00,,,0.00,VWS V14.01,2013-03-31 07:03:00,
2013-03-31 03:08:00,48.3,19.8,30.03,NNW,338,1.6,2.0,32,0.00,,,0.00,VWS V14.01,2013-03-31 07:08:00,
2013-03-31 03:13:00,48.3,19.8,30.03,NNW,338,2.0,2.0,32,0.00,,,0.00,VWS V14.01,2013-03-31 07:13:00,
2013-03-31 03:18:00,48.3,19.8,30.03,NNW,338,0.0,0.0,32,0.00,,,0.00,VWS V14.01,2013-03-31 07:18:00,
2013-03-31 03:23:00,48.3,19.8,30.03,NNW,338,0.0,0.0,32,0.00,,,0.00,VWS V14.01,2013-03-31 07:23:00,
2013-03-31 03:28:00,48.3,19.8,30.03,NNW,338,2.5,2.5,32,0.00,,,0.00,VWS V14.01,2013-03-31 07:28:00,
2013-03-31 03:30:00,48.3,19.8,30.03,NNW,338,2.5,2.5,32,0.00,,,0.00,VWS V14.01,2013-03-31 07:30:00,
2013-03-31 03:33:00,48.3,19.8,30.03,NNW,338,2.9,2.9,32,0.00,,,0.00,VWS V14.01,2013-03-31 07:33:00,
2013-03-31 03:38:00,48.3,19.8,30.03,NNW,338,3.1,3.1,32,0.00,,,0.00,VWS V14.01,2013-03-31 07:38:00,
2013-03-31 03:44:00,48.3,19.8,30.06,NNW,338,3.1,3.1,32,0.00,,,0.00,VWS V14.01,2013-03-31 07:44:00,
2013-03-31 03:49:00,48.3,19.8,30.06,NNW,338,1.6,2.2,32,0.00,,,0.00,VWS V14.01,2013-03-31 07:49:00,
2013-03-31 03:54:00,48.3,19.8,30.06,NNW,338,1.6,1.6,32,0.00,,,0.00,VWS V14.01,2013-03-31 07:54:00,
2013-03-31 03:59:00,48.3,19.8,30.06,NNW,338,2.0,2.0,32,0.00,,,0.00,VWS V14.01,2013-03-31 07:59:00,
2013-03-31 04:00:00,48.3,19.8,30.06,NNW,338,2.0,2.0,32,0.00,,,0.00,VWS V14.01,2013-03-31 08:00:00,
2013-03-31 04:04:00,48.3,19.8,30.06,NNW,338,2.2,3.4,32,0.00,,,0.00,VWS V14.01,2013-03-31 08:04:00,
2013-03-31 04:09:00,48.3,19.8,30.06,NNW,338,1.6,2.5,32,0.00,,,0.00,VWS V14.01,2013-03-31 08:09:00,
2013-03-31 04:14:00,48.3,19.8,30.06,NNW,338,2.2,2.2,32,0.00,,,0.00,VWS V14.01,2013-03-31 08:14:00,
2013-03-31 04:19:00,48.3,19.8,30.06,NNW,338,3.4,4.3,32,0.00,,,0.00,VWS V14.01,2013-03-31 08:19:00,
2013-03-31 04:24:00,48.3,19.8,30.06,NNW,338,2.5,3.1,32,0.00,,,0.00,VWS V14.01,2013-03-31 08:24:00,
2013-03-31 04:29:00,48.3,19.8,30.06,NNW,338,2.5,2.5,32,0.00,,,0.00,VWS V14.01,2013-03-31 08:29:00,
2013-03-31 04:30:00,48.3,19.8,30.06,NNW,338,2.2,2.5,32,0.00,,,0.00,VWS V14.01,2013-03-31 08:30:00,
2013-03-31 04:34:00,48.3,19.8,30.06,NNW,338,3.6,3.6,32,0.00,,,0.00,VWS V14.01,2013-03-31 08:34:00,
2013-03-31 04:39:00,48.3,19.8,30.06,NNW,338,2.0,2.5,32,0.00,,,0.00,VWS V14.01,2013-03-31 08:39:00,
2013-03-31 04:44:00,48.3,19.8,30.09,NNW,338,2.0,3.4,32,0.00,,,0.00,VWS V14.01,2013-03-31 08:44:00,
2013-03-31 04:49:00,48.3,19.8,30.09,NNW,338,2.0,2.5,32,0.00,,,0.00,VWS V14.01,2013-03-31 08:49:00,
2013-03-31 04:54:00,48.3,19.8,30.09,NNW,338,2.9,2.9,32,0.00,,,0.00,VWS V14.01,2013-03-31 08:54:00,
2013-03-31 04:59:00,48.3,19.8,30.09,NNW,338,2.9,3.4,32,0.00,,,0.00,VWS V14.01,2013-03-31 08:59:00,
2013-03-31 05:00:00,48.3,19.8,30.09,NNW,338,2.5,3.4,32,0.00,,,0.00,VWS V14.01,2013-03-31 09:00:00,
2013-03-31 05:04:00,48.3,19.8,30.09,NNW,338,1.3,2.2,32,0.00,,,0.00,VWS V14.01,2013-03-31 09:04:00,
2013-03-31 05:09:00,48.3,19.8,30.09,NNW,338,2.2,2.7,32,0.00,,,0.00,VWS V14.01,2013-03-31 09:09:00,
2013-03-31 05:14:00,48.3,19.8,30.09,NNW,338,2.9,2.9,32,0.00,,,0.00,VWS V14.01,2013-03-31 09:14:00,
2013-03-31 05:19:00,48.3,19.8,30.09,NNW,338,2.7,2.7,32,0.00,,,0.00,VWS V14.01,2013-03-31 09:19:00,
2013-03-31 05:24:00,48.3,19.8,30.09,NNW,338,2.7,3.6,32,0.00,,,0.00,VWS V14.01,2013-03-31 09:24:00,
2013-03-31 05:29:00,48.3,19.8,30.09,NNW,338,2.9,2.9,32,0.00,,,0.00,VWS V14.01,2013-03-31 09:29:00,
2013-03-31 05:30:00,48.3,19.8,30.09,NNW,338,2.9,2.9,32,0.00,,,0.00,VWS V14.01,2013-03-31 09:30:00,
2013-03-31 05:34:00,48.3,19.8,30.09,NNW,338,3.8,3.8,32,0.00,,,0.00,VWS V14.01,2013-03-31 09:34:00,
2013-03-31 05:39:00,48.3,19.8,30.09,NNW,338,3.1,3.1,32,0.00,,,0.00,VWS V14.01,2013-03-31 09:39:00,
2013-03-31 05:44:00,48.3,19.8,30.09,NW,315,2.7,2.9,32,0.00,,,0.00,VWS V14.01,2013-03-31 09:44:00,
2013-03-31 05:49:00,48.3,19.8,30.09,NNW,338,1.3,2.2,32,0.00,,,0.00,VWS V14.01,2013-03-31 09:49:00,
2013-03-31 05:54:00,48.3,19.8,30.09,NNW,338,2.0,2.0,32,0.00,,,0.00,VWS V14.01,2013-03-31 09:54:00,
2013-03-31 05:59:00,48.3,19.8,30.06,NNW,338,3.6,3.8,32,0.00,,,0.00,VWS V14.01,2013-03-31 09:59:00,
2013-03-31 06:00:00,48.3,19.8,30.06,NNW,338,3.6,3.8,32,0.00,,,0.00,VWS V14.01,2013-03-31 10:00:00,
2013-03-31 06:04:00,48.3,19.8,30.06,NNW,338,2.5,2.5,32,0.00,,,0.00,VWS V14.01,2013-03-31 10:04:00,
2013-03-31 06:09:00,48.3,19.8,30.06,NNW,338,2.2,2.2,32,0.00,,,0.00,VWS V14.01,2013-03-31 10:09:00,
2013-03-31 06:14:00,48.3,19.8,30.09,NNW,338,3.1,3.1,32,0.00,,,0.00,VWS V14.01,2013-03-31 10:14:00,
2013-03-31 06:19:00,48.3,19.8,30.09,NNW,338,2.5,2.7,32,0.00,,,0.00,VWS V14.01,2013-03-31 10:19:00,
2013-03-31 06:24:00,48.3,19.8,30.09,NNW,338,2.5,3.6,32,0.00,,,0.00,VWS V14.01,2013-03-31 10:24:00,
2013-03-31 06:29:00,48.3,19.8,30.09,NNW,338,2.2,2.2,32,0.00,,,0.00,VWS V14.01,2013-03-31 10:29:00,
2013-03-31 06:30:00,48.3,19.8,30.09,NNW,338,2.2,2.2,32,0.00,,,0.00,VWS V14.01,2013-03-31 10:30:00,
2013-03-31 06:34:00,48.3,19.8,30.09,NNW,338,0.9,0.9,32,0.00,,,0.00,VWS V14.01,2013-03-31 10:34:00,
2013-03-31 06:39:00,48.3,19.8,30.09,NNW,338,3.4,3.6,32,0.00,,,0.00,VWS V14.01,2013-03-31 10:39:00,
2013-03-31 06:44:00,48.3,19.8,30.09,NNW,338,3.1,3.1,32,0.00,,,0.00,VWS V14.01,2013-03-31 10:44:00,
2013-03-31 06:49:00,48.3,19.8,30.09,NNW,338,2.2,3.1,32,0.00,,,0.00,VWS V14.01,2013-03-31 10:49:00,
2013-03-31 06:54:00,48.3,19.8,30.09,NNW,338,1.3,3.6,32,0.00,,,0.00,VWS V14.01,2013-03-31 10:54:00,
2013-03-31 06:59:00,48.3,19.8,30.09,NNW,338,2.2,2.2,32,0.00,,,0.00,VWS V14.01,2013-03-31 10:59:00,
2013-03-31 07:00:00,48.3,19.8,30.09,NNW,338,2.2,2.2,32,0.00,,,0.00,VWS V14.01,2013-03-31 11:00:00,
2013-03-31 07:04:00,48.3,19.8,30.09,NNW,338,1.6,2.0,32,0.00,,,0.00,VWS V14.01,2013-03-31 11:04:00,
2013-03-31 07:09:00,48.3,19.8,30.09,NNW,338,1.1,1.3,32,0.00,,,0.00,VWS V14.01,2013-03-31 11:09:00,
2013-03-31 07:14:00,48.3,19.8,30.09,NNW,338,2.2,2.2,32,0.00,,,0.00,VWS V14.01,2013-03-31 11:14:00,
2013-03-31 07:19:00,48.3,19.8,30.09,NNW,338,1.1,2.2,32,0.00,,,0.00,VWS V14.01,2013-03-31 11:19:00,
2013-03-31 07:24:00,48.3,19.8,30.09,NNW,338,0.9,1.3,32,0.00,,,0.00,VWS V14.01,2013-03-31 11:24:00,
2013-03-31 07:29:00,48.3,19.8,30.09,NNW,338,0.9,0.9,32,0.00,,,0.00,VWS V14.01,2013-03-31 11:29:00,
2013-03-31 07:30:00,48.3,19.8,30.09,NNW,338,0.9,0.9,32,0.00,,,0.00,VWS V14.01,2013-03-31 11:30:00,
2013-03-31 07:34:00,48.3,19.8,30.09,NNW,338,1.1,1.1,32,0.00,,,0.00,VWS V14.01,2013-03-31 11:34:00,
2013-03-31 07:39:00,48.3,19.8,30.09,NNW,338,1.1,1.1,32,0.00,,,0.00,VWS V14.01,2013-03-31 11:39:00,
2013-03-31 07:44:00,48.3,19.8,30.09,NNW,338,0.0,1.1,32,0.00,,,0.00,VWS V14.01,2013-03-31 11:44:00,
2013-03-31 07:49:00,48.3,19.8,30.09,NNW,338,2.2,2.2,32,0.00,,,0.00,VWS V14.01,2013-03-31 11:49:00,
2013-03-31 07:54:00,48.3,19.8,30.09,NNW,338,4.3,4.3,32,0.00,,,0.00,VWS V14.01,2013-03-31 11:54:00,
2013-03-31 07:59:00,48.3,19.8,30.09,NNW,338,2.5,2.5,32,0.00,,,0.00,VWS V14.01,2013-03-31 11:59:00,
2013-03-31 08:00:00,48.3,19.8,30.09,NNW,338,2.5,2.5,32,0.00,,,0.00,VWS V14.01,2013-03-31 12:00:00,
2013-03-31 08:04:00,48.3,19.8,30.09,NNW,338,1.6,2.2,32,0.00,,,0.00,VWS V14.01,2013-03-31 12:04:00,
2013-03-31 08:09:00,48.3,19.8,30.09,NNW,338,1.6,1.6,32,0.00,,,0.00,VWS V14.01,2013-03-31 12:09:00,
2013-03-31 08:15:00,48.3,19.8,30.09,NNW,338,2.2,2.2,32,0.00,,,0.00,VWS V14.01,2013-03-31 12:15:00,
2013-03-31 08:20:00,48.3,19.8,30.09,NNW,338,1.1,2.0,32,0.00,,,0.00,VWS V14.01,2013-03-31 12:20:00,
2013-03-31 08:25:00,48.3,19.8,30.09,NNW,338,2.7,2.7,32,0.00,,,0.00,VWS V14.01,2013-03-31 12:25:00,
2013-03-31 08:30:00,48.3,19.8,30.09,NNW,338,1.6,1.6,32,0.00,,,0.00,VWS V14.01,2013-03-31 12:30:00,
2013-03-31 08:35:00,48.3,19.8,30.09,NNW,338,2.7,2.7,32,0.00,,,0.00,VWS V14.01,2013-03-31 12:35:00,
2013-03-31 08:40:00,48.3,19.8,30.09,NNW,338,3.1,3.1,32,0.00,,,0.00,VWS V14.01,2013-03-31 12:40:00,
2013-03-31 08:45:00,48.3,19.8,30.09,NNW,338,2.0,2.0,32,0.00,,,0.00,VWS V14.01,2013-03-31 12:45:00,
2013-03-31 08:50:00,48.3,19.8,30.09,NNW,338,1.6,1.6,32,0.00,,,0.00,VWS V14.01,2013-03-31 12:50:00,
2013-03-31 08:55:00,48.3,19.8,30.09,NNW,338,2.7,2.7,32,0.00,,,0.00,VWS V14.01,2013-03-31 12:55:00,
2013-03-31 09:00:00,48.3,19.8,30.09,NNW,338,1.3,2.7,32,0.00,,,0.00,VWS V14.01,2013-03-31 13:00:00,
2013-03-31 09:05:00,48.3,19.8,30.09,NNW,338,2.0,2.2,32,0.00,,,0.00,VWS V14.01,2013-03-31 13:05:00,
2013-03-31 09:10:00,48.3,19.8,30.09,NNW,338,2.0,2.0,32,0.00,,,0.00,VWS V14.01,2013-03-31 13:10:00,
2013-03-31 09:15:00,48.3,19.8,30.09,NNW,338,1.6,1.6,32,0.00,,,0.00,VWS V14.01,2013-03-31 13:15:00,
2013-03-31 09:20:00,48.3,19.8,30.09,NNW,338,1.1,2.0,32,0.00,,,0.00,VWS V14.01,2013-03-31 13:20:00,
2013-03-31 09:25:00,48.3,19.8,30.09,NNW,338,2.2,2.5,32,0.00,,,0.00,VWS V14.01,2013-03-31 13:25:00,
2013-03-31 09:30:00,48.3,19.8,30.09,NNW,338,0.0,1.3,32,0.00,,,0.00,VWS V14.01,2013-03-31 13:30:00,
2013-03-31 09:35:00,48.3,19.8,30.09,NNW,338,1.1,2.5,32,0.00,,,0.00,VWS V14.01,2013-03-31 13:35:00,
2013-03-31 09:40:00,48.3,19.8,30.09,South,180,1.6,2.2,32,0.00,,,0.00,VWS V14.01,2013-03-31 13:40:00,
2013-03-31 09:45:00,48.3,19.8,30.09,SSW,202,2.9,3.6,32,0.00,,,0.00,VWS V14.01,2013-03-31 13:45:00,
2013-03-31 09:50:00,48.3,19.8,30.09,SSW,202,1.6,2.0,32,0.00,,,0.00,VWS V14.01,2013-03-31 13:50:00,
2013-03-31 09:55:00,48.3,19.8,30.09,SSW,202,2.5,2.7,32,0.00,,,0.00,VWS V14.01,2013-03-31 13:55:00,
2013-03-31 10:00:00,48.3,19.8,30.09,SSE,158,2.0,2.7,32,0.00,,,0.00,VWS V14.01,2013-03-31 14:00:00,
2013-03-31 10:05:00,48.3,19.8,30.09,East,90,1.6,2.9,32,0.00,,,0.00,VWS V14.01,2013-03-31 14:05:00,
2013-03-31 10:10:00,48.3,19.8,30.09,SSE,158,3.4,3.4,32,0.00,,,0.00,VWS V14.01,2013-03-31 14:10:00,
2013-03-31 10:15:00,48.3,19.8,30.09,ENE,68,4.0,4.0,32,0.00,,,0.00,VWS V14.01,2013-03-31 14:15:00,
2013-03-31 10:20:00,48.3,19.8,30.09,SSE,158,1.6,2.9,32,0.00,,,0.00,VWS V14.01,2013-03-31 14:20:00,
2013-03-31 10:25:00,48.3,19.8,30.09,East,90,2.7,3.8,32,0.00,,,0.00,VWS V14.01,2013-03-31 14:25:00,
2013-03-31 10:30:00,48.3,19.8,30.09,SSW,202,1.6,2.9,32,0.00,,,0.00,VWS V14.01,2013-03-31 14:30:00,
2013-03-31 10:35:00,48.3,19.8,30.09,South,180,2.0,4.3,32,0.00,,,0.00,VWS V14.01,2013-03-31 14:35:00,
2013-03-31 10:40:00,48.3,19.8,30.09,South,180,3.6,3.6,32,0.00,,,0.00,VWS V14.01,2013-03-31 14:40:00,
2013-03-31 10:45:00,48.3,19.8,30.09,SSW,202,2.7,4.0,32,0.00,,,0.00,VWS V14.01,2013-03-31 14:45:00,
2013-03-31 10:50:00,48.3,19.8,30.09,SSE,158,2.7,2.7,32,0.00,,,0.00,VWS V14.01,2013-03-31 14:50:00,
2013-03-31 10:55:00,48.3,19.8,30.09,SSE,158,1.1,2.2,32,0.00,,,0.00,VWS V14.01,2013-03-31 14:55:00,
2013-03-31 11:00:00,48.3,19.8,30.09,SE,135,1.3,3.1,32,0.00,,,0.00,VWS V14.01,2013-03-31 15:00:00,
2013-03-31 11:05:00,48.3,19.8,30.09,SSW,202,2.7,3.8,32,0.00,,,0.00,VWS V14.01,2013-03-31 15:05:00,
2013-03-31 11:11:00,48.3,19.8,30.09,SW,225,1.3,4.3,32,0.00,,,0.00,VWS V14.01,2013-03-31 15:11:00,
2013-03-31 11:16:00,48.3,19.8,30.09,SSW,202,2.7,2.7,32,0.00,,,0.00,VWS V14.01,2013-03-31 15:16:00,
2013-03-31 11:21:00,48.3,19.8,30.09,SSW,202,2.7,4.0,32,0.00,,,0.00,VWS V14.01,2013-03-31 15:21:00,
2013-03-31 11:25:00,48.3,19.8,30.09,South,180,3.8,4.3,32,0.00,,,0.00,VWS V14.01,2013-03-31 15:25:00,
2013-03-31 11:30:00,48.3,19.8,30.06,WSW,248,3.4,4.7,32,0.00,,,0.00,VWS V14.01,2013-03-31 15:30:00,
2013-03-31 11:31:00,48.3,19.8,30.06,SW,225,3.8,3.8,32,0.00,,,0.00,VWS V14.01,2013-03-31 15:31:00,
2013-03-31 11:36:00,48.3,19.8,30.06,SE,135,3.4,4.3,32,0.00,,,0.00,VWS V14.01,2013-03-31 15:36:00,
2013-03-31 11:41:00,48.3,19.8,30.06,South,180,3.6,3.6,32,0.00,,,0.00,VWS V14.01,2013-03-31 15:41:00,
2013-03-31 11:46:00,48.3,19.8,30.06,South,180,3.4,4.7,32,0.00,,,0.00,VWS V14.01,2013-03-31 15:46:00,
2013-03-31 11:51:00,48.3,19.8,30.06,SSW,202,3.8,3.8,32,0.00,,,0.00,VWS V14.01,2013-03-31 15:51:00,
2013-03-31 11:56:00,48.3,19.8,30.06,SSW,202,2.9,4.3,32,0.00,,,0.00,VWS V14.01,2013-03-31 15:56:00,
2013-03-31 12:00:00,48.3,19.8,30.06,South,180,2.9,4.3,32,0.00,,,0.00,VWS V14.01,2013-03-31 16:00:00,
2013-03-31 12:02:00,48.3,19.8,30.06,SSW,202,2.9,4.3,32,0.00,,,0.00,VWS V14.01,2013-03-31 16:02:00,
2013-03-31 12:07:00,48.3,19.8,30.06,SSW,202,2.9,4.3,32,0.00,,,0.00,VWS V14.01,2013-03-31 16:07:00,
2013-03-31 12:12:00,48.3,19.8,30.06,South,180,3.4,3.6,32,0.00,,,0.00,VWS V14.01,2013-03-31 16:12:00,
2013-03-31 12:17:00,48.3,19.8,30.06,SSW,202,3.1,4.0,32,0.00,,,0.00,VWS V14.01,2013-03-31 16:17:00,
2013-03-31 12:22:00,48.3,19.8,30.06,South,180,3.6,3.6,32,0.00,,,0.00,VWS V14.01,2013-03-31 16:22:00,
2013-03-31 12:27:00,48.3,19.8,30.06,South,180,3.1,3.1,32,0.00,,,0.00,VWS V14.01,2013-03-31 16:27:00,
2013-03-31 12:30:00,48.3,19.8,30.03,South,180,2.7,3.6,32,0.00,,,0.00,VWS V14.01,2013-03-31 16:30:00,
2013-03-31 12:32:00,48.3,19.8,30.03,SSE,158,3.8,5.4,32,0.00,,,0.00,VWS V14.01,2013-03-31 16:32:00,
2013-03-31 12:37:00,48.3,19.8,30.03,SSE,158,2.7,4.3,32,0.00,,,0.00,VWS V14.01,2013-03-31 16:37:00,
2013-03-31 12:43:00,48.3,19.8,30.03,SW,225,1.3,3.4,32,0.00,,,0.00,VWS V14.01,2013-03-31 16:43:00,
2013-03-31 12:48:00,48.3,19.8,30.03,South,180,3.1,3.8,32,0.00,,,0.00,VWS V14.01,2013-03-31 16:48:00,
2013-03-31 12:53:00,48.3,19.8,30.03,South,180,3.8,5.6,32,0.00,,,0.00,VWS V14.01,2013-03-31 16:53:00,
2013-03-31 12:57:00,48.3,19.8,30.03,ESE,112,3.1,6.0,32,0.00,,,0.00,VWS V14.01,2013-03-31 16:57:00,
2013-03-31 13:00:00,48.3,19.8,30.03,East,90,2.9,3.6,32,0.00,,,0.00,VWS V14.01,2013-03-31 17:00:00,
2013-03-31 13:02:00,48.3,19.8,30.03,South,180,2.9,4.7,32,0.00,,,0.00,VWS V14.01,2013-03-31 17:02:00,
2013-03-31 13:07:00,48.3,19.8,30.03,SSE,158,3.6,6.0,32,0.00,,,0.00,VWS V14.01,2013-03-31 17:07:00,
2013-03-31 13:12:00,48.3,19.8,30.03,SSE,158,3.4,4.7,32,0.00,,,0.00,VWS V14.01,2013-03-31 17:12:00,
2013-03-31 13:17:00,48.3,19.8,30.03,SSE,158,3.6,4.9,32,0.00,,,0.00,VWS V14.01,2013-03-31 17:17:00,
2013-03-31 13:22:00,48.3,19.8,30.03,SSE,158,4.3,4.3,32,0.00,,,0.00,VWS V14.01,2013-03-31 17:22:00,
2013-03-31 13:27:00,48.3,19.8,30.03,SSE,158,3.8,5.6,32,0.00,,,0.00,VWS V14.01,2013-03-31 17:27:00,
2013-03-31 13:30:00,48.3,19.8,30.06,SSE,158,5.4,5.6,32,0.00,,,0.00,VWS V14.01,2013-03-31 17:30:00,
2013-03-31 13:33:00,48.3,19.8,30.06,South,180,4.9,6.5,32,0.00,,,0.00,VWS V14.01,2013-03-31 17:33:00,
2013-03-31 13:38:00,48.3,19.8,30.06,SSE,158,6.0,6.0,32,0.00,,,0.00,VWS V14.01,2013-03-31 17:38:00,
2013-03-31 13:43:00,48.3,19.8,30.06,SSE,158,4.3,7.8,32,0.00,,,0.00,VWS V14.01,2013-03-31 17:43:00,
2013-03-31 13:48:00,48.3,19.8,30.03,SSE,158,4.0,4.7,32,0.00,,,0.00,VWS V14.01,2013-03-31 17:48:00,
2013-03-31 13:53:00,48.3,19.8,30.03,SSE,158,4.9,5.8,32,0.00,,,0.00,VWS V14.01,2013-03-31 17:53:00,
2013-03-31 13:58:00,48.3,19.8,30.03,South,180,5.4,5.8,32,0.00,,,0.00,VWS V14.01,2013-03-31 17:58:00,
2013-03-31 14:00:00,48.3,19.8,30.03,SSE,158,3.4,5.4,32,0.00,,,0.00,VWS V14.01,2013-03-31 18:00:00,
2013-03-31 14:03:00,48.3,19.8,30.03,SSE,158,3.1,5.4,32,0.00,,,0.00,VWS V14.01,2013-03-31 18:03:00,
2013-03-31 14:08:00,48.3,19.8,30.03,SSE,158,3.1,5.8,32,0.00,,,0.00,VWS V14.01,2013-03-31 18:08:00,
2013-03-31 14:13:00,48.3,19.8,30.03,SSE,158,3.1,6.0,32,0.00,,,0.00,VWS V14.01,2013-03-31 18:13:00,
2013-03-31 14:18:00,48.3,19.8,30.03,SSE,158,5.8,6.5,32,0.00,,,0.00,VWS V14.01,2013-03-31 18:18:00,
2013-03-31 14:23:00,48.3,19.8,30.03,SSE,158,3.4,5.4,32,0.00,,,0.00,VWS V14.01,2013-03-31 18:23:00,
2013-03-31 14:28:00,48.3,19.8,30.00,SSE,158,4.0,4.3,32,0.00,,,0.00,VWS V14.01,2013-03-31 18:28:00,
2013-03-31 14:30:00,48.3,19.8,30.00,SSW,202,3.4,4.0,32,0.00,,,0.00,VWS V14.01,2013-03-31 18:30:00,
2013-03-31 14:33:00,48.3,19.8,30.00,SSE,158,2.9,5.4,32,0.00,,,0.00,VWS V14.01,2013-03-31 18:33:00,
2013-03-31 14:38:00,48.3,19.8,30.00,South,180,5.6,5.6,32,0.00,,,0.00,VWS V14.01,2013-03-31 18:38:00,
2013-03-31 14:43:00,48.3,19.8,30.00,SSE,158,4.3,5.6,32,0.00,,,0.00,VWS V14.01,2013-03-31 18:43:00,
2013-03-31 14:48:00,48.3,19.8,30.00,South,180,4.0,6.5,32,0.00,,,0.00,VWS V14.01,2013-03-31 18:48:00,
2013-03-31 14:53:00,48.3,19.8,30.00,South,180,5.8,5.8,32,0.00,,,0.00,VWS V14.01,2013-03-31 18:53:00,
2013-03-31 14:58:00,48.3,19.8,30.00,SSE,158,4.3,5.4,32,0.00,,,0.00,VWS V14.01,2013-03-31 18:58:00,
2013-03-31 15:00:00,48.3,19.8,30.00,South,180,5.6,5.6,32,0.00,,,0.00,VWS V14.01,2013-03-31 19:00:00,
2013-03-31 15:03:00,48.3,19.8,30.00,SSE,158,3.8,7.2,32,0.00,,,0.00,VWS V14.01,2013-03-31 19:03:00,
2013-03-31 15:08:00,48.3,19.8,30.00,SSE,158,3.4,5.6,32,0.00,,,0.00,VWS V14.01,2013-03-31 19:08:00,
2013-03-31 15:13:00,48.3,19.8,30.00,SSE,158,3.6,5.6,32,0.00,,,0.00,VWS V14.01,2013-03-31 19:13:00,
2013-03-31 15:18:00,48.3,19.8,30.00,SSE,158,3.8,6.5,32,0.00,,,0.00,VWS V14.01,2013-03-31 19:18:00,
2013-03-31 15:23:00,48.3,19.8,30.00,SE,135,3.4,5.6,32,0.00,,,0.00,VWS V14.01,2013-03-31 19:23:00,
2013-03-31 15:28:00,48.3,19.8,30.00,South,180,4.0,5.6,32,0.00,,,0.00,VWS V14.01,2013-03-31 19:28:00,
2013-03-31 15:30:00,48.3,19.8,30.00,SSE,158,4.7,5.6,32,0.00,,,0.00,VWS V14.01,2013-03-31 19:30:00,
2013-03-31 15:34:00,48.3,19.8,30.00,SSE,158,4.7,6.5,32,0.00,,,0.00,VWS V14.01,2013-03-31 19:34:00,
2013-03-31 15:39:00,48.3,19.8,30.00,SSE,158,4.0,5.4,32,0.00,,,0.00,VWS V14.01,2013-03-31 19:39:00,
2013-03-31 15:44:00,48.3,19.8,30.00,SSE,158,2.5,4.9,32,0.00,,,0.00,VWS V14.01,2013-03-31 19:44:00,
2013-03-31 15:49:00,48.3,19.8,30.00,SE,135,4.3,4.3,32,0.00,,,0.00,VWS V14.01,2013-03-31 19:49:00,
2013-03-31 15:54:00,48.3,19.8,30.00,SSE,158,3.8,5.8,32,0.00,,,0.00,VWS V14.01,2013-03-31 19:54:00,
2013-03-31 15:58:00,48.3,19.8,30.00,SSE,158,3.6,4.9,32,0.00,,,0.00,VWS V14.01,2013-03-31 19:58:00,
2013-03-31 16:00:00,48.3,19.8,30.00,SSE,158,3.1,4.9,32,0.00,,,0.00,VWS V14.01,2013-03-31 20:00:00,
2013-03-31 16:04:00,48.3,19.8,30.00,SSE,158,3.1,4.3,32,0.00,,,0.00,VWS V14.01,2013-03-31 20:04:00,
2013-03-31 16:09:00,48.3,19.8,30.00,SSE,158,2.7,5.6,32,0.00,,,0.00,VWS V14.01,2013-03-31 20:09:00,
2013-03-31 16:14:00,48.3,19.8,30.00,South,180,2.9,6.0,32,0.00,,,0.00,VWS V14.01,2013-03-31 20:14:00,
2013-03-31 16:19:00,48.3,19.8,30.00,SSE,158,2.9,3.8,32,0.00,,,0.00,VWS V14.01,2013-03-31 20:19:00,
2013-03-31 16:24:00,48.3,19.8,30.00,SSE,158,2.0,5.8,32,0.00,,,0.00,VWS V14.01,2013-03-31 20:24:00,
2013-03-31 16:29:00,48.3,19.8,30.00,SSE,158,3.6,5.4,32,0.00,,,0.00,VWS V14.01,2013-03-31 20:29:00,
2013-03-31 16:30:00,48.3,19.8,30.00,South,180,3.4,5.4,32,0.00,,,0.00,VWS V14.01,2013-03-31 20:30:00,
2013-03-31 16:34:00,48.3,19.8,30.00,South,180,4.3,4.9,32,0.00,,,0.00,VWS V14.01,2013-03-31 20:34:00,
2013-03-31 16:39:00,48.3,19.8,30.00,SSE,158,3.6,5.8,32,0.00,,,0.00,VWS V14.01,2013-03-31 20:39:00,
2013-03-31 16:44:00,48.3,19.8,30.00,South,180,4.3,4.9,32,0.00,,,0.00,VWS V14.01,2013-03-31 20:44:00,
2013-03-31 16:49:00,48.3,19.8,30.00,SSE,158,3.1,5.8,32,0.00,,,0.00,VWS V14.01,2013-03-31 20:49:00,
2013-03-31 16:54:00,48.3,19.8,30.00,SSW,202,3.6,4.0,32,0.00,,,0.00,VWS V14.01,2013-03-31 20:54:00,
2013-03-31 16:59:00,48.3,19.8,30.00,SSE,158,3.1,3.4,32,0.00,,,0.00,VWS V14.01,2013-03-31 20:59:00,
2013-03-31 17:00:00,48.3,19.8,30.00,SSE,158,3.6,3.6,32,0.00,,,0.00,VWS V14.01,2013-03-31 21:00:00,
2013-03-31 17:04:00,48.3,19.8,30.00,SE,135,2.7,4.7,32,0.00,,,0.00,VWS V14.01,2013-03-31 21:04:00,
2013-03-31 17:09:00,48.3,19.8,30.00,SSE,158,4.7,4.7,32,0.00,,,0.00,VWS V14.01,2013-03-31 21:09:00,
2013-03-31 17:14:00,48.3,19.8,29.97,South,180,2.9,4.5,32,0.00,,,0.00,VWS V14.01,2013-03-31 21:14:00,
2013-03-31 17:19:00,48.3,19.8,29.97,SSE,158,3.6,6.5,32,0.00,,,0.00,VWS V14.01,2013-03-31 21:19:00,
2013-03-31 17:24:00,48.3,19.8,29.97,South,180,2.0,3.8,32,0.00,,,0.00,VWS V14.01,2013-03-31 21:24:00,
2013-03-31 17:29:00,48.3,19.8,29.97,SSE,158,2.5,3.1,32,0.00,,,0.00,VWS V14.01,2013-03-31 21:29:00,
2013-03-31 17:30:00,48.3,19.8,29.97,SSE,158,2.5,3.1,32,0.00,,,0.00,VWS V14.01,2013-03-31 21:30:00,
2013-03-31 17:34:00,48.3,19.8,29.97,SSE,158,3.6,3.6,32,0.00,,,0.00,VWS V14.01,2013-03-31 21:34:00,
2013-03-31 17:39:00,48.3,19.8,29.97,SSE,158,3.1,3.6,32,0.00,,,0.00,VWS V14.01,2013-03-31 21:39:00,
2013-03-31 17:44:00,48.3,19.8,29.97,South,180,2.7,3.1,32,0.00,,,0.00,VWS V14.01,2013-03-31 21:44:00,
2013-03-31 17:49:00,48.3,19.8,29.97,South,180,2.7,3.1,32,0.00,,,0.00,VWS V14.01,2013-03-31 21:49:00,
2013-03-31 17:54:00,48.3,19.8,29.97,South,180,2.5,2.9,32,0.00,,,0.00,VWS V14.01,2013-03-31 21:54:00,
2013-03-31 17:59:00,48.3,19.8,29.97,SSE,158,2.7,3.8,32,0.00,,,0.00,VWS V14.01,2013-03-31 21:59:00,
2013-03-31 18:00:00,48.3,19.8,29.97,SSE,158,3.1,3.8,32,0.00,,,0.00,VWS V14.01,2013-03-31 22:00:00,
2013-03-31 18:04:00,48.3,19.8,29.97,SSE,158,2.0,2.7,32,0.00,,,0.00,VWS V14.01,2013-03-31 22:04:00,
2013-03-31 18:09:00,48.3,19.8,29.97,SSE,158,2.9,3.1,32,0.00,,,0.00,VWS V14.01,2013-03-31 22:09:00,
2013-03-31 18:14:00,48.3,19.8,29.97,SSE,158,3.4,3.4,32,0.00,,,0.00,VWS V14.01,2013-03-31 22:14:00,
2013-03-31 18:19:00,48.3,19.8,29.97,SSE,158,3.4,3.4,32,0.00,,,0.00,VWS V14.01,2013-03-31 22:19:00,
2013-03-31 18:24:00,48.3,19.8,29.97,SSE,158,0.0,2.2,32,0.00,,,0.00,VWS V14.01,2013-03-31 22:24:00,
2013-03-31 18:29:00,48.3,19.8,29.97,SSE,158,1.6,2.2,32,0.00,,,0.00,VWS V14.01,2013-03-31 22:29:00,
2013-03-31 18:30:00,48.3,19.8,29.97,SSE,158,2.2,2.2,32,0.00,,,0.00,VWS V14.01,2013-03-31 22:30:00,
2013-03-31 18:34:00,48.3,19.8,29.97,SSE,158,1.1,1.6,32,0.00,,,0.00,VWS V14.01,2013-03-31 22:34:00,
2013-03-31 18:39:00,48.3,19.8,29.97,SSE,158,0.0,2.2,32,0.00,,,0.00,VWS V14.01,2013-03-31 22:39:00,
2013-03-31 18:44:00,48.3,19.8,29.97,SE,135,0.0,1.3,32,0.00,,,0.00,VWS V14.01,2013-03-31 22:44:00,
2013-03-31 18:49:00,48.3,19.8,29.97,ESE,112,1.6,2.7,32,0.00,,,0.00,VWS V14.01,2013-03-31 22:49:00,
2013-03-31 18:55:00,48.3,19.8,29.97,ESE,112,0.9,0.9,32,0.00,,,0.00,VWS V14.01,2013-03-31 22:55:00,
2013-03-31 19:00:00,48.3,19.8,29.97,ESE,112,1.1,1.1,32,0.00,,,0.00,VWS V14.01,2013-03-31 23:00:00,
2013-03-31 19:05:00,48.3,19.8,29.97,ESE,112,0.0,0.0,32,0.00,,,0.00,VWS V14.01,2013-03-31 23:05:00,
2013-03-31 19:10:00,48.3,19.8,29.97,ESE,112,0.0,0.9,32,0.00,,,0.00,VWS V14.01,2013-03-31 23:10:00,
2013-03-31 19:15:00,48.3,19.8,29.97,ESE,112,1.1,1.6,32,0.00,,,0.00,VWS V14.01,2013-03-31 23:15:00,
2013-03-31 19:20:00,48.3,19.8,29.97,ESE,112,1.1,1.1,32,0.00,,,0.00,VWS V14.01,2013-03-31 23:20:00,
2013-03-31 19:25:00,48.3,19.8,29.97,SSE,158,1.3,2.2,32,0.00,,,0.00,VWS V14.01,2013-03-31 23:25:00,
2013-03-31 19:30:00,48.3,19.8,29.97,SSE,158,0.0,0.0,32,0.00,,,0.00,VWS V14.01,2013-03-31 23:30:00,
2013-03-31 19:35:00,48.3,19.8,29.97,SSE,158,0.0,0.0,32,0.00,,,0.00,VWS V14.01,2013-03-31 23:35:00,
2013-03-31 19:40:00,48.3,19.8,29.97,SSE,158,1.6,1.6,32,0.00,,,0.00,VWS V14.01,2013-03-31 23:40:00,
2013-03-31 19:45:00,48.3,19.8,29.97,SSE,158,0.0,0.0,32,0.00,,,0.00,VWS V14.01,2013-03-31 23:45:00,
2013-03-31 19:50:00,48.3,19.8,29.97,SSE,158,0.0,0.0,32,0.00,,,0.00,VWS V14.01,2013-03-31 23:50:00,
2013-03-31 19:55:00,48.3,19.8,29.97,SSE,158,0.0,0.0,32,0.00,,,0.00,VWS V14.01,2013-03-31 23:55:00,
2013-03-31 20:00:00,48.3,19.8,29.97,SSE,158,0.0,0.0,32,0.00,,,0.00,VWS V14.01,2013-04-01 00:00:00,
2013-03-31 20:05:00,48.3,19.8,29.97,SSE,158,0.0,0.0,32,0.00,,,0.00,VWS V14.01,2013-04-01 00:05:00,
2013-03-31 20:10:00,48.3,19.8,29.97,SSE,158,0.0,0.0,32,0.00,,,0.00,VWS V14.01,2013-04-01 00:10:00,
2013-03-31 20:15:00,48.3,19.8,29.97,SSE,158,0.0,0.0,32,0.00,,,0.00,VWS V14.01,2013-04-01 00:15:00,
2013-03-31 20:20:00,48.3,19.8,29.97,SSE,158,0.9,2.0,32,0.00,,,0.00,VWS V14.01,2013-04-01 00:20:00,
2013-03-31 20:25:00,48.3,19.8,29.97,SSE,158,2.0,2.0,32,0.00,,,0.00,VWS V14.01,2013-04-01 00:25:00,
2013-03-31 20:30:00,48.3,19.8,29.97,SSE,158,0.0,0.0,32,0.00,,,0.00,VWS V14.01,2013-04-01 00:30:00,
2013-03-31 20:35:00,48.3,19.8,29.97,SSE,158,0.0,1.1,32,0.00,,,0.00,VWS V14.01,2013-04-01 00:35:00,
2013-03-31 20:40:00,48.3,19.8,29.97,SSE,158,0.0,0.0,32,0.00,,,0.00,VWS V14.01,2013-04-01 00:40:00,
2013-03-31 20:45:00,48.3,19.8,29.97,SSE,158,1.3,2.0,32,0.00,,,0.00,VWS V14.01,2013-04-01 00:45:00,
2013-03-31 20:50:00,48.3,19.8,29.97,SSE,158,1.6,2.7,32,0.00,,,0.00,VWS V14.01,2013-04-01 00:50:00,
2013-03-31 20:55:00,48.3,19.8,29.97,SSE,158,1.1,1.6,32,0.00,,,0.00,VWS V14.01,2013-04-01 00:55:00,
2013-03-31 21:00:00,48.3,19.8,29.97,SSE,158,0.0,1.1,32,0.00,,,0.00,VWS V14.01,2013-04-01 01:00:00,
2013-03-31 21:05:00,48.3,19.8,29.97,SSE,158,0.0,2.0,32,0.00,,,0.00,VWS V14.01,2013-04-01 01:05:00,
2013-03-31 21:10:00,48.3,19.8,29.97,SSE,158,1.6,2.0,32,0.00,,,0.00,VWS V14.01,2013-04-01 01:10:00,
2013-03-31 21:15:00,48.3,19.8,29.94,SSE,158,0.0,1.6,32,0.00,,,0.00,VWS V14.01,2013-04-01 01:15:00,
2013-03-31 21:20:00,48.3,19.8,29.94,SSE,158,0.0,0.0,32,0.00,,,0.00,VWS V14.01,2013-04-01 01:20:00,
2013-03-31 21:25:00,48.3,19.8,29.94,SSE,158,0.0,0.0,32,0.00,,,0.00,VWS V14.01,2013-04-01 01:25:00,
2013-03-31 21:30:00,48.3,19.8,29.94,SSE,158,0.9,1.3,32,0.00,,,0.00,VWS V14.01,2013-04-01 01:30:00,
2013-03-31 21:35:00,48.3,19.8,29.94,SSE,158,1.3,1.3,32,0.00,,,0.00,VWS V14.01,2013-04-01 01:35:00,
2013-03-31 21:40:00,48.3,19.8,29.94,SSE,158,0.0,0.0,32,0.00,,,0.00,VWS V14.01,2013-04-01 01:40:00,
2013-03-31 21:45:00,48.3,19.8,29.91,SSE,158,0.0,0.0,32,0.00,,,0.00,VWS V14.01,2013-04-01 01:45:00,
2013-03-31 21:50:00,48.3,19.8,29.91,SSE,158,1.3,2.0,32,0.00,,,0.00,VWS V14.01,2013-04-01 01:50:00,
2013-03-31 21:55:00,48.3,19.8,29.91,SSE,158,1.1,1.3,32,0.00,,,0.00,VWS V14.01,2013-04-01 01:55:00,
2013-03-31 22:00:00,48.3,19.8,29.88,SSE,158,0.0,0.0,32,0.00,,,0.00,VWS V14.01,2013-04-01 02:00:00,
2013-03-31 22:05:00,48.3,19.8,29.88,SSE,158,1.1,1.6,32,0.00,,,0.00,VWS V14.01,2013-04-01 02:05:00,
2013-03-31 22:10:00,48.3,19.8,29.88,SSE,158,0.0,1.1,32,0.00,,,0.00,VWS V14.01,2013-04-01 02:10:00,
2013-03-31 22:15:00,48.3,19.8,29.88,SSE,158,0.0,0.0,32,0.00,,,0.00,VWS V14.01,2013-04-01 02:15:00,
2013-03-31 22:20:00,48.3,19.8,29.88,SSE,158,1.1,1.3,32,0.00,,,0.00,VWS V14.01,2013-04-01 02:20:00,
2013-03-31 22:25:00,48.3,19.8,29.88,SSE,158,0.0,0.0,32,0.00,,,0.00,VWS V14.01,2013-04-01 02:25:00,
2013-03-31 22:30:00,48.3,19.8,29.94,SSE,158,0.9,0.9,32,0.00,,,0.00,VWS V14.01,2013-04-01 02:30:00,
2013-03-31 22:36:00,48.3,19.8,29.94,SSE,158,0.9,1.6,32,0.00,,,0.00,VWS V14.01,2013-04-01 02:36:00,
2013-03-31 22:41:00,48.3,19.8,29.94,SSE,158,0.0,1.3,32,0.00,,,0.00,VWS V14.01,2013-04-01 02:41:00,
2013-03-31 22:46:00,48.3,19.8,29.91,SSE,158,0.0,0.0,32,0.00,,,0.00,VWS V14.01,2013-04-01 02:46:00,
2013-03-31 22:51:00,48.3,19.8,29.91,SSE,158,0.0,1.3,32,0.00,,,0.00,VWS V14.01,2013-04-01 02:51:00,
2013-03-31 22:56:00,48.3,19.8,29.91,SSE,158,1.6,1.6,32,0.00,,,0.00,VWS V14.01,2013-04-01 02:56:00,
2013-03-31 23:00:00,48.3,19.8,29.88,SSE,158,2.0,2.2,32,0.00,,,0.00,VWS V14.01,2013-04-01 03:00:00,
2013-03-31 23:01:00,48.3,19.8,29.88,SSE,158,2.2,2.5,32,0.00,,,0.00,VWS V14.01,2013-04-01 03:01:00,
2013-03-31 23:06:00,48.3,19.8,29.88,SSE,158,2.5,2.5,32,0.00,,,0.00,VWS V14.01,2013-04-01 03:06:00,
2013-03-31 23:11:00,48.3,19.8,29.88,SSE,158,1.6,3.1,32,0.00,,,0.00,VWS V14.01,2013-04-01 03:11:00,
2013-03-31 23:16:00,48.3,19.8,29.88,SSE,158,1.3,2.7,32,0.00,,,0.00,VWS V14.01,2013-04-01 03:16:00,
2013-03-31 23:21:00,48.3,19.8,29.88,SSE,158,1.6,1.6,32,0.00,,,0.00,VWS V14.01,2013-04-01 03:21:00,
2013-03-31 23:26:00,48.3,19.8,29.88,SSE,158,1.6,1.6,32,0.00,,,0.00,VWS V14.01,2013-04-01 03:26:00,
2013-03-31 23:30:00,48.3,19.8,29.85,SSE,158,0.0,0.0,32,0.00,,,0.00,VWS V14.01,2013-04-01 03:30:00,
2013-03-31 23:31:00,48.3,19.8,29.85,SSE,158,0.0,0.0,32,0.00,,,0.00,VWS V14.01,2013-04-01 03:31:00,
2013-03-31 23:36:00,48.3,19.8,29.85,SSE,158,0.0,0.0,32,0.00,,,0.00,VWS V14.01,2013-04-01 03:36:00,
2013-03-31 23:41:00,48.3,19.8,29.85,SSE,158,0.0,1.6,32,0.00,,,0.00,VWS V14.01,2013-04-01 03:41:00,
2013-03-31 23:46:00,48.3,19.8,29.85,SSE,158,1.3,2.0,32,0.00,,,0.00,VWS V14.01,2013-04-01 03:46:00,
2013-03-31 23:51:00,48.3,19.8,29.85,SSE,158,0.0,1.6,32,0.00,,,0.00,VWS V14.01,2013-04-01 03:51:00,
2013-03-31 23:56:00,48.3,19.8,29.85,SSE,158,0.0,0.0,32,0.00,,,0.00,VWS V14.01,2013-04-01 03:56:00,